Retour au catalogue

EKRAN 2

ActifCommunicationsGEO
NORAD 10365·PAYLOAD·🇷🇺 Russia

Lancé Sep 20, 1977 depuis Baikonur Cosmodrome

Loading…

TLE

FraisSource: Space-Track

Époque: Sep 14, 2026, 14:10 UTC

1 10365U 77092A   26257.59061441 -.00000116  00000-0  00000-0 0  9991
2 10365   4.0127 273.4556 0036492   6.9558   3.9646  1.00216354135751

Suivez EKRAN 2 en temps réel avec AllMySat

Download on the App Store